Weather History for Jersey, United Kingdom

Change the Weather History Date:

Saturday, November 3, 2012

  Actual Average Record
Temperature  
Mean Temperature 50 °F -  
Max Temperature 54 °F 50 °F 62 °F (2011)
Min Temperature 45 °F 44 °F 39 °F (1997)
Degree Days  
Heating Degree Days 16    
Moisture  
Dew Point 42 °F    
Average Humidity 74    
Maximum Humidity 87    
Minimum Humidity 51    
Precipitation  
Precipitation 0.00 in - - ()
Sea Level Pressure  
Sea Level Pressure 29.50 in    
Wind  
Wind Speed 16 mph ()    
Max Wind Speed 28 mph    
Max Gust Speed 34 mph    
Visibility 6.3 miles    
Events Rain    
Averages and records for this station are not official NWS values.
T = Trace of Precipitation, MM = Missing Value Source: Averaged Metar Reports

Daily Weather History Graph

Daily Weather History Graph

Search for Another Location

Airport:

Trip Planner

Search our weather history database for the weather conditions in past years. The results will help you decide how hot, cold, wet, or windy it might be!

Date:

Astronomy

Nov. 03, 2012 Rise Set
Actual Time 7:00 AM GMT 4:43 PM GMT
Civil Twilight 6:26 AM GMT 5:17 PM GMT
Nautical Twilight 5:48 AM GMT 5:55 PM GMT
Astronomical Twilight 5:11 AM GMT 6:31 PM GMT
Moon 8:02 PM GMT (11/3) 11:04 AM GMT (11/3)
Length of Visible Light 10h 50m
Length of Day
9h 43m
Waning Gibbous, 82% of the Moon is Illuminated
Nov 3
Waning Gibbous
Nov 7
Last Quarter
Nov 13
New
Nov 20
First Quarter
Nov 28
Full

Hourly Weather History & Observations

Time (GMT) Temp. Windchill Dew Point Humidity Pressure Visibility Wind Dir Wind Speed Gust Speed Precip Events Conditions
3:00 AM 47 °F - 42 °F 79% 29.44 in 9 mi SW 11.5 mph - - Rain Light Rain
3:50 AM 48.2 °F - 44.6 °F 87% 29.42 in 6.2 mi SW 16.1 mph - N/A   Mostly Cloudy
4:20 AM 48.2 °F - 44.6 °F 87% 29.42 in 6.2 mi WSW 15.0 mph - N/A Rain Light Rain Showers
4:50 AM 46.4 °F 39.2 °F 42.8 °F 87% 29.42 in 6.2 mi WSW 18.4 mph - N/A Rain Light Rain Showers
5:20 AM 48.2 °F - 44.6 °F 87% 29.42 in 6.2 mi WSW 19.6 mph - N/A   Partly Cloudy
5:50 AM 48.2 °F - 44.6 °F 87% 29.42 in 6.2 mi WSW 21.9 mph - N/A Rain Light Rain Showers
6:00 AM 49 °F - 45 °F 79% 29.44 in 9 mi WSW 23.0 mph - - Rain Light Rain Showers
6:20 AM 46.4 °F 37.5 °F 42.8 °F 87% 29.42 in 6.2 mi WSW 27.6 mph - N/A   Scattered Clouds
6:50 AM 48.2 °F - 42.8 °F 82% 29.44 in 6.2 mi WSW 24.2 mph - N/A   Scattered Clouds
7:20 AM 48.2 °F - 42.8 °F 82% 29.44 in 6.2 mi West 18.4 mph 33.4 mph N/A   Scattered Clouds
7:50 AM 50.0 °F - 41.0 °F 71% 29.47 in 6.2 mi West 26.5 mph - N/A   Mostly Cloudy
8:20 AM 50.0 °F - 41.0 °F 71% 29.47 in 6.2 mi West 25.3 mph - N/A   Scattered Clouds
8:50 AM 51.8 °F - 42.8 °F 71% 29.47 in 6.2 mi West 19.6 mph - N/A   Scattered Clouds
9:00 AM 51 °F - 41 °F 60% 29.50 in 28 mi West 20.7 mph - -   Partly Cloudy
9:20 AM 50.0 °F - 39.2 °F 66% 29.50 in 6.2 mi West 20.7 mph - N/A   Partly Cloudy
9:50 AM 51.8 °F - 39.2 °F 62% 29.50 in 6.2 mi West 18.4 mph - N/A   Scattered Clouds
10:20 AM 51.8 °F - 39.2 °F 62% 29.50 in 6.2 mi West 18.4 mph - N/A   Partly Cloudy
10:50 AM 51.8 °F - 42.8 °F 71% 29.50 in 6.2 mi WSW 18.4 mph - N/A   Scattered Clouds
11:20 AM 51.8 °F - 39.2 °F 62% 29.53 in 6.2 mi West 16.1 mph - N/A   Partly Cloudy
11:50 AM 51.8 °F - 39.2 °F 62% 29.53 in 6.2 mi West 15.0 mph - N/A   Partly Cloudy
12:00 PM 52 °F - 39 °F 51% 29.54 in 25 mi West 15.0 mph - -   Partly Cloudy
12:20 PM 48.2 °F - 41.0 °F 76% 29.53 in 6.2 mi WSW 19.6 mph 34.5 mph N/A Rain Light Rain Showers
12:50 PM 51.8 °F - 42.8 °F 71% 29.53 in 6.2 mi SW 12.7 mph - N/A   Scattered Clouds
1:20 PM 53.6 °F - 42.8 °F 67% 29.53 in 6.2 mi SW 16.1 mph - N/A   Scattered Clouds
1:50 PM 50.0 °F - 41.0 °F 71% 29.53 in 6.2 mi West 16.1 mph - N/A   Mostly Cloudy
2:20 PM 51.8 °F - 42.8 °F 71% 29.53 in 6.2 mi SW 17.3 mph - N/A   Partly Cloudy
2:50 PM 50.0 °F - 42.8 °F 76% 29.53 in 6.2 mi West 15.0 mph - N/A   Partly Cloudy
3:00 PM 50 °F - 43 °F 69% 29.55 in 28 mi West 13.8 mph - -   Partly Cloudy
3:20 PM 50.0 °F - 42.8 °F 76% 29.53 in 6.2 mi WSW 15.0 mph - N/A   Partly Cloudy
3:50 PM 50.0 °F - 41.0 °F 71% 29.53 in 6.2 mi WSW 17.3 mph - N/A   Partly Cloudy
4:20 PM 50.0 °F - 42.8 °F 76% 29.53 in 6.2 mi WSW 12.7 mph - N/A   Scattered Clouds
4:50 PM 48.2 °F - 42.8 °F 82% 29.53 in 6.2 mi SW 12.7 mph - N/A   Scattered Clouds
5:20 PM 46.4 °F 41.5 °F 41.0 °F 81% 29.53 in 6.2 mi SSW 10.4 mph - N/A   Partly Cloudy
5:50 PM 46.4 °F 41.1 °F 41.0 °F 81% 29.53 in 6.2 mi WSW 11.5 mph - N/A   Partly Cloudy
6:00 PM 46 °F - 41 °F 76% 29.56 in 28 mi SW 13.8 mph - -   Partly Cloudy
6:20 PM 48.2 °F - 41.0 °F 76% 29.53 in 6.2 mi SW 12.7 mph 26.5 mph N/A   Partly Cloudy
6:50 PM 50.0 °F - 42.8 °F 76% 29.53 in 6.2 mi SW 15.0 mph - N/A   Scattered Clouds
7:20 PM 50.0 °F - 41.0 °F 71% 29.53 in 6.2 mi SW 16.1 mph - N/A   Scattered Clouds
7:50 PM 48.2 °F - 41.0 °F 76% 29.56 in 6.2 mi SW 13.8 mph - N/A   Scattered Clouds
8:20 PM 48.2 °F - 41.0 °F 76% 29.56 in 6.2 mi WSW 18.4 mph - N/A   Mostly Cloudy
8:50 PM 48.2 °F - 39.2 °F 71% 29.53 in 6.2 mi WSW 19.6 mph - N/A   Partly Cloudy
9:00 PM 48 °F - 39 °F 62% 29.56 in 28 mi WSW 18.4 mph - -   Scattered Clouds
9:20 PM 48.2 °F - 41.0 °F 76% 29.53 in 6.2 mi SW 15.0 mph - N/A   Partly Cloudy
9:50 PM 48.2 °F - 41.0 °F 76% 29.53 in 6.2 mi SW 10.4 mph - N/A   Partly Cloudy
10:20 PM 48.2 °F - 39.2 °F 71% 29.53 in 6.2 mi SSW 9.2 mph - N/A   Partly Cloudy